Home > Weather > Campinas > Past weeks

Flag for Brazil Weather for the Past 2 Weeks in Campinas, São Paulo, Brazil

Now
82 °F

Scattered showers. Passing clouds.


Feels Like: 85 °F
Forecast: N/A
Wind: 6 mph from Northwest

Location: Campinas Aeroporto

Current Time: Feb 9, 2016 at 9:00:47 PM

Latest Report: Feb 9, 2016 at 8:00 PM


Visibility: N/A

Pressure: N/A

Humidity: 58%

Dew point: 66 °F

Location of CampinasLocation

Historic Weather in Campinas — Graph

°F

Campinas Temperature Yesterday

Maximum temperature yesterday: 88 °F (at 2:00 PM)
Minimum temperature yesterday: 68 °F (at 1:00 AM)
Average temperature yesterday: 76 °F

High & Low Weather Summary for the Past Weeks

 TemperatureHumidityPressure
High95 °F (Feb 2, 4:00 PM)100% (Jan 27, 7:00 PM)30.15 "Hg (Jan 27, 7:00 PM)
Low68 °F (Feb 1, 7:00 AM)17% (Jan 25, 8:00 PM)29.83 "Hg (Jan 26, 6:00 PM)
Average78 °F70%30.04 "Hg
* Reported Jan 25 7:00 PM — Feb 9 7:00 PM, Campinas, Weather by CustomWeather, © 2016

Note: Actual official high and low records may vary slightly from our data, if they occured in-between our weather recording intervals... More about our weather records

Advertising

Campinas Weather History for the Previous 24 Hours

 ConditionsComfort  
Time TempWeatherWind HumidityBarometerVisibility
7:00 PM
Tue, Feb 9
86 °FScattered showers. Scattered clouds.6 mph52%N/AN/A
6:00 PM90 °FScattered clouds.8 mph46%30.01 "HgN/A
5:00 PM90 °FScattered clouds.9 mph43%30.01 "HgN/A
4:00 PM90 °FScattered clouds.9 mph46%30.04 "HgN/A
3:00 PM88 °FPartly sunny.12 mph49%30.09 "HgN/A
2:00 PM88 °FPartly sunny.9 mph46%30.09 "HgN/A
1:00 PM86 °FScattered clouds.10 mph52%30.12 "HgN/A
12:00 PM82 °FScattered clouds.8 mph62%30.12 "HgN/A
11:00 AM81 °FScattered clouds.7 mph70%30.15 "HgN/A
10:00 AM79 °FSunny.6 mph74%30.15 "Hg10 mi
9:00 AM77 °FPassing clouds.6 mph79%30.15 "HgN/A
8:00 AM73 °FSunny.2 mph83%30.12 "Hg10 mi
7:00 AM70 °FPassing clouds.No wind100%30.12 "HgN/A
6:00 AM70 °FPassing clouds.5 mph94%30.09 "HgN/A
5:00 AM70 °FClear.6 mph100%30.09 "Hg10 mi
4:00 AM70 °FClear.6 mph100%30.09 "Hg10 mi
3:00 AM72 °FClear.6 mph94%30.09 "Hg10 mi
2:00 AM72 °FClear.7 mph94%30.09 "Hg10 mi
1:00 AM72 °FClear.6 mph94%30.09 "Hg10 mi
12:00 AM73 °FClear.7 mph94%30.12 "Hg10 mi
11:00 PM
Mon, Feb 8
75 °FClear.2 mph83%30.09 "Hg10 mi
10:00 PM75 °FClear.5 mph78%30.09 "Hg10 mi
9:00 PM77 °FThundershowers. Passing clouds.6 mph79%30.07 "HgN/A
Weather by CustomWeather, © 2016

See weather overviewHow to use our weather pages